Weather History for KAIK - September, 2014

Change the Weather History Date:

Tuesday, September 9, 2014

  Actual Average Record
Temperature  
Mean Temperature 73 °F -  
Max Temperature 80 °F 88 °F 95 °F (2010)
Min Temperature 66 °F 64 °F 59 °F (2011)
Cooling Degree Days 8    
Growing Degree Days 23 (Base 50)    
Moisture  
Dew Point 69 °F    
Average Humidity 89    
Maximum Humidity 100    
Minimum Humidity 70    
Precipitation  
Precipitation 0.00 in - - ()
Sea Level Pressure  
Sea Level Pressure 30.14 in    
Wind  
Wind Speed 4 mph (North)    
Max Wind Speed 9 mph    
Max Gust Speed -    
Visibility 10 miles    
Events      
Averages and records for this station are not official NWS values.
T = Trace of Precipitation, MM = Missing Value Source: NWS Daily Summary

Daily Weather History Graph

Daily Weather History Graph

Search for Another Location

Airport or City:

Trip Planner

Search our weather history database for the weather conditions in past years. The results will help you decide how hot, cold, wet, or windy it might be!

Date:

Astronomy

Sep. 09, 2014 Rise Set
Actual Time 7:06 AM EDT 7:41 PM EDT
Civil Twilight 6:40 AM EDT 8:06 PM EDT
Nautical Twilight 6:11 AM EDT 8:36 PM EDT
Astronomical Twilight 5:41 AM EDT 9:06 PM EDT
Moon 8:05 PM EDT (9/9) 7:37 AM EDT (9/9)
Length of Visible Light 13h 25m
Length of Day
12h 35m
Waxing Gibbous, 99% of the Moon is Illuminated
Sep 9
Waxing Gibbous
Sep 15
Last Quarter
Sep 24
New
Oct 1
First Quarter
Oct 8
Full

Hourly Weather History & Observations

Time (EDT) Temp. Heat Index Dew Point Humidity Pressure Visibility Wind Dir Wind Speed Gust Speed Precip Events Conditions
12:15 AM 69.8 °F - 69.8 °F 100% 30.13 in 10.0 mi North 6.9 mph - N/A   Overcast
12:35 AM 69.8 °F - 69.8 °F 100% 30.14 in 10.0 mi North 5.8 mph - N/A   Overcast
12:55 AM 69.8 °F - 69.8 °F 100% 30.13 in 10.0 mi North 4.6 mph - N/A   Overcast
1:35 AM 69.8 °F - 69.8 °F 100% 30.13 in 10.0 mi North 3.5 mph - N/A   Overcast
1:55 AM 69.8 °F - 69.8 °F 100% 30.13 in 10.0 mi North 3.5 mph - N/A   Overcast
2:15 AM 69.8 °F - 69.8 °F 100% 30.14 in 10.0 mi North 3.5 mph - N/A   Overcast
2:35 AM 69.8 °F - 69.8 °F 100% 30.13 in 10.0 mi North 3.5 mph - N/A   Overcast
2:55 AM 69.8 °F - 69.8 °F 100% 30.13 in 10.0 mi NNW 3.5 mph - N/A   Overcast
3:15 AM 69.8 °F - 69.8 °F 100% 30.13 in 10.0 mi Calm Calm - N/A   Overcast
3:35 AM 69.8 °F - 69.8 °F 100% 30.13 in 10.0 mi Calm Calm - N/A   Overcast
3:55 AM 69.8 °F - 69.8 °F 100% 30.13 in 10.0 mi Calm Calm - N/A   Overcast
4:15 AM 69.8 °F - 69.8 °F 100% 30.13 in 10.0 mi Calm Calm - N/A   Overcast
4:35 AM 69.8 °F - 69.8 °F 100% 30.12 in 10.0 mi Calm Calm - N/A   Overcast
5:15 AM 68.0 °F - 68.0 °F 100% 30.12 in 10.0 mi Calm Calm - N/A   Scattered Clouds
5:35 AM 68.0 °F - 68.0 °F 100% 30.13 in 10.0 mi Calm Calm - N/A   Clear
5:55 AM 68.0 °F - 68.0 °F 100% 30.13 in 10.0 mi Calm Calm - N/A   Clear
6:15 AM 66.2 °F - 66.2 °F 100% 30.13 in 10.0 mi NNW 3.5 mph - N/A   Clear
6:35 AM 66.2 °F - 66.2 °F 100% 30.13 in 10.0 mi Calm Calm - N/A   Clear
6:55 AM 66.2 °F - 66.2 °F 100% 30.14 in 10.0 mi Calm Calm - N/A   Clear
7:15 AM 66.2 °F - 66.2 °F 100% 30.14 in 10.0 mi Calm Calm - N/A   Clear
7:35 AM 66.2 °F - 66.2 °F 100% 30.15 in 7.0 mi North 3.5 mph - N/A   Clear
7:55 AM 68.0 °F - 68.0 °F 100% 30.15 in 7.0 mi North 4.6 mph - N/A   Clear
8:15 AM 68.0 °F - 68.0 °F 100% 30.16 in 10.0 mi North 4.6 mph - N/A   Clear
8:35 AM 69.8 °F - 69.8 °F 100% 30.16 in 10.0 mi NNW 6.9 mph - N/A   Scattered Clouds
8:55 AM 69.8 °F - 69.8 °F 100% 30.16 in 10.0 mi North 5.8 mph - N/A   Mostly Cloudy
9:15 AM 69.8 °F - 69.8 °F 100% 30.16 in 10.0 mi North 5.8 mph - N/A   Overcast
9:35 AM 71.6 °F - 71.6 °F 100% 30.16 in 10.0 mi North 4.6 mph - N/A   Overcast
9:55 AM 71.6 °F - 69.8 °F 94% 30.16 in 10.0 mi North 5.8 mph - N/A   Overcast
10:35 AM 71.6 °F - 69.8 °F 94% 30.18 in 10.0 mi North 4.6 mph - N/A   Overcast
11:15 AM 73.4 °F - 68.0 °F 83% 30.18 in 10.0 mi North 5.8 mph - N/A   Overcast
11:35 AM 73.4 °F - 68.0 °F 83% 30.18 in 10.0 mi Calm Calm - N/A   Overcast
11:55 AM 73.4 °F - 68.0 °F 83% 30.18 in 10.0 mi NNW 3.5 mph - N/A   Overcast
12:15 PM 75.2 °F - 68.0 °F 78% 30.18 in 10.0 mi NE 3.5 mph - N/A   Overcast
12:35 PM 75.2 °F - 68.0 °F 78% 30.18 in 10.0 mi North 6.9 mph - N/A   Overcast
12:55 PM 75.2 °F - 68.0 °F 78% 30.17 in 10.0 mi NNW 4.6 mph - N/A   Overcast
1:15 PM 77.0 °F - 68.0 °F 74% 30.17 in 10.0 mi Calm Calm - N/A   Overcast
1:35 PM 77.0 °F - 69.8 °F 78% 30.16 in 10.0 mi North 6.9 mph - N/A   Overcast
1:55 PM 77.0 °F - 69.8 °F 78% 30.16 in 10.0 mi NW 4.6 mph - N/A   Overcast
2:15 PM 78.8 °F - 69.8 °F 74% 30.14 in 10.0 mi NNE 5.8 mph - N/A   Overcast
2:35 PM 78.8 °F - 69.8 °F 74% 30.14 in 10.0 mi NE 3.5 mph - N/A   Overcast
2:55 PM 80.6 °F 83.9 °F 69.8 °F 70% 30.13 in 10.0 mi NNW 3.5 mph - N/A   Mostly Cloudy
4:15 PM 78.8 °F - 69.8 °F 74% 30.11 in 10.0 mi North 6.9 mph - N/A   Mostly Cloudy
4:35 PM 78.8 °F - 69.8 °F 74% 30.11 in 10.0 mi ENE 4.6 mph - N/A   Mostly Cloudy
5:15 PM 78.8 °F - 69.8 °F 74% 30.10 in 10.0 mi NE 5.8 mph - N/A   Overcast
5:35 PM 78.8 °F - 69.8 °F 74% 30.10 in 10.0 mi NNE 9.2 mph - N/A   Overcast
5:55 PM 78.8 °F - 69.8 °F 74% 30.10 in 10.0 mi ENE 8.1 mph - N/A   Overcast
6:15 PM 78.8 °F - 69.8 °F 74% 30.10 in 10.0 mi ENE 9.2 mph - N/A   Overcast
6:35 PM 78.8 °F - 69.8 °F 74% 30.10 in 10.0 mi NNE 9.2 mph - N/A   Overcast
7:15 PM 77.0 °F - 69.8 °F 78% 30.10 in 10.0 mi NE 8.1 mph - N/A   Overcast
7:35 PM 77.0 °F - 69.8 °F 78% 30.10 in 10.0 mi ENE 6.9 mph - N/A   Overcast
8:15 PM 73.4 °F - 68.0 °F 83% 30.11 in 10.0 mi NE 3.5 mph - N/A   Mostly Cloudy
8:35 PM 73.4 °F - 68.0 °F 83% 30.11 in 10.0 mi ENE 3.5 mph - N/A   Mostly Cloudy
8:55 PM 73.4 °F - 68.0 °F 83% 30.11 in 10.0 mi Calm Calm - N/A   Mostly Cloudy
9:15 PM 73.4 °F - 68.0 °F 83% 30.12 in 10.0 mi Calm Calm - N/A   Mostly Cloudy
9:35 PM 73.4 °F - 68.0 °F 83% 30.12 in 10.0 mi Calm Calm - N/A   Overcast
9:55 PM 73.4 °F - 68.0 °F 83% 30.12 in 10.0 mi Calm Calm - N/A   Overcast
10:15 PM 73.4 °F - 69.8 °F 88% 30.13 in 10.0 mi Calm Calm - N/A   Overcast
10:35 PM 73.4 °F - 69.8 °F 88% 30.13 in 10.0 mi Calm Calm - N/A   Overcast
10:55 PM 73.4 °F - 69.8 °F 88% 30.14 in 10.0 mi Calm Calm - N/A   Overcast
11:15 PM 73.4 °F - 69.8 °F 88% 30.14 in 10.0 mi Calm Calm - N/A   Overcast
11:35 PM 73.4 °F - 69.8 °F 88% 30.14 in 10.0 mi Calm Calm - N/A   Overcast
11:55 PM 71.6 °F - 69.8 °F 94% 30.13 in 10.0 mi ENE 4.6 mph - N/A   Mostly Cloudy